Weather History for Klamath Falls, OR

Change the Weather History Date:

Tuesday, February 28, 2012

  Actual Average Record
Temperature  
Mean Temperature 27 °F 37 °F  
Max Temperature 39 °F 48 °F 64 °F (1986)
Min Temperature 15 °F 26 °F 0 °F (1993)
Degree Days  
Heating Degree Days 38 28  
Month to date heating degree days 851 860  
Since 1 July heating degree days 4636 4841  
Cooling Degree Days 0 0  
Month to date cooling degree days 0 0  
Year to date cooling degree days 0 0  
Moisture  
Dew Point 22 °F    
Average Humidity 78    
Maximum Humidity 92    
Minimum Humidity 48    
Precipitation  
Precipitation 0.03 in 0.06 in 0.48 in (1940)
Month to date precipitation 0.53 1.92  
Year to date precipitation 1.89 3.77  
Sea Level Pressure  
Sea Level Pressure 29.80 in    
Wind  
Wind Speed 13 mph (South)    
Max Wind Speed 38 mph    
Max Gust Speed 51 mph    
Visibility 6 miles    
Events Fog , Snow    
T = Trace of Precipitation, MM = Missing Value Source: NWS Daily Summary

Daily Weather History Graph

Daily Weather History Graph

Search for Another Location

Airport:

Trip Planner

Search our weather history database for the weather conditions in past years. The results will help you decide how hot, cold, wet, or windy it might be!

Date:

Astronomy

Feb. 28, 2012 Rise Set
Actual Time 6:44 AM PST 5:55 PM PST
Civil Twilight 6:16 AM PST 6:23 PM PST
Nautical Twilight 5:43 AM PST 6:55 PM PST
Astronomical Twilight 5:11 AM PST 7:28 PM PST
Moon 9:47 AM PST (2/28) 12:00 AM PST (2/28)
Length of Visible Light 12h 07m
Length of Day
11h 10m
Waxing Crescent, 39% of the Moon is Illuminated
Feb 28
Waxing Crescent
Feb 29
First Quarter
Mar 8
Full
Mar 14
Last Quarter
Mar 22
New

Hourly Weather History & Observations

Time (PST) Temp. Windchill Dew Point Humidity Pressure Visibility Wind Dir Wind Speed Gust Speed Precip Events Conditions
12:53 AM 19.9 °F - 16.0 °F 85% 29.91 in 10.0 mi Calm Calm - N/A   Clear
1:53 AM 19.9 °F - 16.0 °F 85% 29.91 in 10.0 mi Calm Calm - N/A   Clear
2:53 AM 18.0 °F - 14.0 °F 84% 29.92 in 10.0 mi Calm Calm - N/A   Clear
3:53 AM 19.0 °F - 15.1 °F 85% 29.92 in 10.0 mi Calm Calm - N/A   Clear
4:53 AM 18.0 °F - 15.1 °F 88% 29.93 in 10.0 mi Calm Calm - N/A   Clear
5:53 AM 16.0 °F - 12.9 °F 88% 29.96 in 10.0 mi Calm Calm - N/A   Clear
6:00 AM 17.6 °F - 12.2 °F 79% 29.89 in 10.0 mi Calm Calm - N/A   Clear
6:53 AM 18.0 °F 8.7 °F 14.0 °F 84% 29.97 in 10.0 mi ESE 6.9 mph - N/A   Mostly Cloudy
7:53 AM 21.9 °F 15.7 °F 17.1 °F 82% 29.97 in 10.0 mi ESE 4.6 mph - N/A   Mostly Cloudy
8:53 AM 28.0 °F 18.6 °F 21.9 °F 78% 29.95 in 10.0 mi SE 10.4 mph - N/A   Mostly Cloudy
9:53 AM 32.0 °F 23.0 °F 21.0 °F 64% 29.94 in 10.0 mi SSE 11.5 mph - N/A   Mostly Cloudy
10:53 AM 34.0 °F 28.0 °F 19.9 °F 56% 29.94 in 10.0 mi South 6.9 mph - N/A   Mostly Cloudy
11:53 AM 37.9 °F 32.1 °F 19.9 °F 48% 29.91 in 10.0 mi South 8.1 mph - N/A   Mostly Cloudy
12:53 PM 36.0 °F 28.5 °F 21.9 °F 57% 29.92 in 10.0 mi West 10.4 mph - 0.00 in Snow Light Snow
1:53 PM 34.0 °F 24.2 °F 21.9 °F 61% 29.93 in 10.0 mi SW 15.0 mph 20.7 mph 0.00 in Snow Light Snow
2:53 PM 35.1 °F 25.9 °F 21.9 °F 59% 29.90 in 10.0 mi South 13.8 mph 20.7 mph 0.00 in Snow Light Snow
3:53 PM 34.0 °F 22.7 °F 24.1 °F 67% 29.86 in 10.0 mi South 19.6 mph - 0.00 in Snow Light Snow
4:53 PM 34.0 °F 21.8 °F 23.0 °F 64% 29.82 in 10.0 mi South 23.0 mph 31.1 mph 0.00 in Snow Light Snow
5:53 PM 34.0 °F 21.8 °F 24.1 °F 67% 29.80 in 10.0 mi South 23.0 mph 35.7 mph 0.00 in Snow Light Snow
6:53 PM 34.0 °F 20.5 °F 23.0 °F 64% 29.75 in 7.0 mi South 28.8 mph 40.3 mph 0.00 in Snow Light Snow
7:07 PM 33.8 °F 20.1 °F 23.0 °F 65% 29.68 in 7.0 mi South 29.9 mph 42.6 mph 0.00 in   Overcast
7:53 PM 34.0 °F 20.1 °F 21.9 °F 61% 29.70 in 7.0 mi South 31.1 mph 42.6 mph 0.00 in   Overcast
8:46 PM 32.0 °F 16.5 °F 24.8 °F 75% 29.65 in 5.0 mi South 35.7 mph 46.0 mph 0.00 in Snow Light Snow
8:53 PM 32.0 °F 17.6 °F 26.1 °F 79% 29.70 in 5.0 mi South 29.9 mph 43.7 mph 0.00 in Snow Light Snow
8:57 PM 32.0 °F 16.7 °F 24.8 °F 75% 29.65 in 1.5 mi South 34.5 mph 42.6 mph 0.00 in Snow Light Snow
9:13 PM 30.2 °F 14.9 °F 26.6 °F 86% 29.67 in 0.8 mi South 31.1 mph 39.1 mph 0.00 in Snow Light Snow
9:40 PM 30.2 °F 15.7 °F 28.4 °F 93% 29.67 in 0.5 mi South 27.6 mph 42.6 mph 0.00 in Snow Snow
9:53 PM 30.0 °F 15.4 °F 28.9 °F 96% 29.70 in 0.5 mi South 27.6 mph 42.6 mph 0.01 in Snow Snow
10:07 PM 30.2 °F 15.4 °F 28.4 °F 93% 29.65 in 0.2 mi SSW 28.8 mph 39.1 mph 0.01 in Fog Light Freezing Fog
10:21 PM 30.2 °F 15.4 °F 28.4 °F 93% 29.65 in 0.5 mi South 28.8 mph 35.7 mph 0.01 in Fog Light Freezing Fog
10:51 PM 30.2 °F 15.9 °F 28.4 °F 93% 29.65 in 0.5 mi South 26.5 mph 35.7 mph 0.02 in Fog , Snow Snow
10:53 PM 30.0 °F 16.6 °F 28.9 °F 96% 29.68 in 0.5 mi South 23.0 mph 35.7 mph 0.02 in Fog , Snow Snow
11:33 PM 30.2 °F 16.5 °F 28.4 °F 93% 29.63 in 1.0 mi South 24.2 mph 32.2 mph 0.00 in Snow Light Snow
11:46 PM 30.2 °F 15.4 °F 28.4 °F 93% 29.63 in 0.8 mi SSW 28.8 mph 36.8 mph 0.00 in Snow Light Snow
11:53 PM 30.9 °F 17.2 °F 28.9 °F 92% 29.65 in 0.8 mi South 25.3 mph 34.5 mph 0.00 in   Overcast